Station PORO3 - 9431647 - Port Orford, OR Image indicating link to RSS feed of recent meteorological observations for station PORO3


Conditions at PORO3 as of
(4:00 pm PDT)
2300 GMT on 06/21/2024:
     

Click on the graph icon in the table below to see a time series plot of the last five days of that observation.

5-day plot - Wind Direction Wind Direction (WDIR): N ( 10 deg true )
5-day plot - Wind Speed Wind Speed (WSPD): 19.0 kts
5-day plot - Wind Gust Wind Gust (GST): 26.0 kts
5-day plot - Atmospheric Pressure Atmospheric Pressure (PRES):29.94 in
5-day plot - Pressure Tendency Pressure Tendency (PTDY):+0.00 in ( Steady )
5-day plot - Air Temperature Air Temperature (ATMP): 60.6 °F
5-day plot - Water Temperature Water Temperature (WTMP): 46.2 °F
5-day plot - Wind Speed at 10 Meters Wind Speed at 10 meters (WSPD10M): 19.4 kts
5-day plot - Wind Speed at 20 Meters Wind Speed at 20 meters (WSPD20M): 21.4 kts
5-day plot -  Wind Speed, Wind Gust and Atmospheric Pressure Combined plot of Wind Speed, Gust, and Air Pressure
NOS Water Level Observation Network Water Level
Previous observations
TIME
(PDT)
5-day plot - Wind Direction
WDIR
 
5-day plot - Wind Speed
WSPD
kts
5-day plot - Wind Gust
GST
kts
5-day plot - Wave Height
WVHT
ft
5-day plot - Dominant Wave Period
DPD
sec
5-day plot - Average Wave Period
APD
sec
5-day plot - Mean Wave Direction
MWD
 
5-day plot - Atmospheric Pressure
PRES
in
5-day plot - Pressure Tendency
PTDY
in
5-day plot - Air Temperature
ATMP
°F
5-day plot - Water Temperature
WTMP
°F
5-day plot - Dew Point
DEWP
°F
5-day plot - Salinity
SAL
psu
5-day plot - Visibility
VIS
nmi
5-day plot - Tide (above MLLW)
TIDE
ft
2024-06-21 03:54 pm N 14.0 22.9----29.93- 61.3 46.2----
2024-06-21 03:48 pm-------29.93- 61.5 46.2----
2024-06-21 03:42 pm-------29.93- 61.7 46.6----
2024-06-21 03:36 pm-------29.93- 61.9 46.6----
2024-06-21 03:30 pm N 13.0 22.9----29.93- 61.7 46.6----
2024-06-21 03:24 pm N 15.0 22.0----29.93- 61.7 46.6----
2024-06-21 03:18 pm N 15.9 22.9----29.93- 61.7 46.6----
2024-06-21 03:12 pm N 18.1 22.9----29.93- 62.4 46.6----
2024-06-21 03:06 pm N 12.0 22.0----29.93- 63.7 46.6----
2024-06-21 03:00 pm N 14.0 20.0----29.93+0.00 63.7 46.2----
2024-06-21 02:54 pm N 12.0 22.9----29.93- 63.1 46.2----
2024-06-21 02:48 pm N 15.9 26.0----29.94- 61.9 46.2----
2024-06-21 02:42 pm N 12.0 26.0----29.94- 62.1 46.0----
2024-06-21 02:36 pm N 17.1 24.1----29.94- 61.5 45.9----
2024-06-21 02:30 pm N 15.0 22.0----29.94- 61.7 45.9----
2024-06-21 02:24 pm N 15.0 24.1----29.94- 61.3 45.7----
2024-06-21 02:18 pm N 15.9 28.0----29.95- 61.0 45.7----
2024-06-21 02:12 pm N 19.0 27.0----29.95- 60.3 45.9----
2024-06-21 02:06 pm N 15.9 26.0----29.95- 60.1 45.9----
2024-06-21 02:00 pm N 15.9 25.1----29.94+0.02 60.1 45.9----
2024-06-21 01:54 pm N 17.1 29.9----29.94- 60.1 45.9----
2024-06-21 01:48 pm N 20.0 27.0----29.95- 59.7 45.9----
2024-06-21 01:42 pm N 15.9 25.1----29.95- 60.3 45.7----
2024-06-21 01:36 pm N 17.1 28.0----29.95- 60.1 45.7----
2024-06-21 01:30 pm N 14.0 22.9----29.95- 60.6 45.7----
2024-06-21 01:24 pm N 17.1 27.0----29.94- 60.6 45.7----
2024-06-21 01:18 pm N 14.0 26.0----29.94- 60.8 45.7----
2024-06-21 01:12 pm N 12.0 24.1----29.94- 61.2 45.7----
2024-06-21 01:06 pm N 12.0 22.0----29.94- 61.7 45.7----
2024-06-21 01:00 pm N 15.0 20.0----29.94+0.02 61.9 45.5----
2024-06-21 12:54 pm N 13.0 22.0----29.94- 62.2 45.5----
2024-06-21 12:48 pm N 14.0 21.0----29.93- 62.2 45.7----
2024-06-21 12:42 pm N 15.0 22.9----29.93- 62.6 45.9----
2024-06-21 12:36 pm N 15.9 21.0----29.93- 62.2 45.9----
2024-06-21 12:30 pm N 15.9 21.0----29.93- 62.2 45.9----
2024-06-21 12:24 pmNNW 17.1 24.1----29.93- 61.5 45.7----
2024-06-21 12:18 pm N 15.0 22.9----29.93- 61.7 45.3----
2024-06-21 12:12 pm N 17.1 22.0----29.93- 61.5 45.3----
2024-06-21 12:06 pm N 12.0 22.0----29.93- 61.9 45.1----
2024-06-21 12:00 pm N 15.0 22.9----29.93+0.01 61.3 45.1----
2024-06-21 11:54 am N 15.9 24.1----29.92- 61.9 45.1----
2024-06-21 11:48 am N 12.0 22.9----29.93- 62.4 45.1----
2024-06-21 11:42 am N 17.1 24.1----29.93- 61.7 45.1----
2024-06-21 11:36 am N 15.9 22.9----29.92- 61.9 45.1----
2024-06-21 11:30 am N 15.0 24.1----29.92- 61.9 45.0----
2024-06-21 11:24 am N 18.1 24.1----29.93- 61.7 45.0----
2024-06-21 11:18 am N 15.9 22.9----29.92- 61.9 45.1----
2024-06-21 11:12 amNNW 14.0 22.0----29.92- 61.9 45.3----
2024-06-21 11:06 am N 15.9 25.1----29.92- 61.5 45.3----
2024-06-21 11:00 am N 17.1 22.9----29.92+0.00 61.5 45.3----
2024-06-21 10:54 am N 15.0 22.9----29.92- 61.7 45.3----
2024-06-21 10:48 am N 15.0 21.0----29.92- 61.5 45.1----
2024-06-21 10:42 am N 15.9 22.9----29.92- 61.0 45.3----
2024-06-21 10:36 am N 15.0 22.0----29.92- 60.6 45.1----
2024-06-21 10:30 am N 17.1 22.9----29.92- 59.9 45.1----
2024-06-21 10:24 am N 14.0 25.1----29.92- 59.9 45.0----
2024-06-21 10:18 am N 15.9 24.1----29.92- 59.9 45.0----
2024-06-21 10:12 am N 15.0 22.9----29.92- 59.5 45.1----
2024-06-21 10:06 am N 13.0 22.9----29.92- 59.4 45.1----
2024-06-21 10:00 am N 15.9 26.0----29.92+0.00 58.8 45.1----
2024-06-21 09:54 am N 18.1 25.1----29.92- 58.6 45.0----
2024-06-21 09:48 am N 18.1 24.1----29.92- 59.0 45.0----
2024-06-21 09:42 am N 15.0 25.1----29.93- 59.7 45.0----
2024-06-21 09:36 am N 15.0 25.1----29.92- 59.5 45.0----
2024-06-21 09:30 am N 15.9 22.0----29.92- 59.4 45.0----
2024-06-21 09:24 am N 14.0 20.0----29.92- 59.7 45.0----
2024-06-21 09:18 am N 17.1 22.9----29.92- 59.0 45.0----
2024-06-21 09:12 am N 17.1 24.1----29.92- 59.0 45.0----
2024-06-21 09:06 am N 15.0 24.1----29.92- 58.8 45.0----
2024-06-21 09:00 am N 15.0 22.0----29.92-0.03 58.5 45.0----
2024-06-21 08:54 am N 18.1 24.1----29.92- 58.1 45.0----
2024-06-21 08:48 am N 14.0 22.9----29.92- 58.5 45.0----
2024-06-21 08:42 am N 17.1 25.1----29.92- 58.1 45.0----
2024-06-21 08:36 am N 17.1 26.0----29.92- 58.1 45.0----
2024-06-21 08:30 am N 15.0 22.0----29.92- 58.1 45.0----
2024-06-21 08:24 am N 15.9 22.9----29.92- 57.9 45.0----
2024-06-21 08:18 am N 17.1 24.1----29.92- 58.3 45.0----
2024-06-21 08:12 am N 17.1 22.9----29.92- 57.9 45.0----
2024-06-21 08:06 am N 14.0 21.0----29.92- 58.1 45.0----
2024-06-21 08:00 am N 12.0 17.1----29.92-0.03 58.1 45.0----
2024-06-21 07:54 am N 14.0 20.0----29.92- 57.7 45.1----
2024-06-21 07:48 am N 14.0 20.0----29.92- 57.6 45.1----
2024-06-21 07:42 am N 15.0 22.9----29.92- 57.4 45.1----
2024-06-21 07:36 amNNW 15.9 20.0----29.92- 57.0 45.1----
2024-06-21 07:30 amNNW 14.0 20.0----29.92- 57.0 45.1----
2024-06-21 07:24 am N 13.0 21.0----29.92- 56.8 45.1----
2024-06-21 07:18 am N 15.0 21.0----29.92- 56.5 45.1----
2024-06-21 07:12 am N 14.0 19.0----29.92- 56.5 45.3----
2024-06-21 07:06 amNNW 15.0 19.0----29.92- 56.3 45.3----
2024-06-21 07:00 amNNW 13.0 20.0----29.92+0.00 56.1 45.3----
2024-06-21 06:54 amNNW 13.0 19.0----29.93- 55.9 45.3----
2024-06-21 06:48 amNNW 14.0 19.0----29.93- 55.8 45.1----
2024-06-21 06:42 amNNW 13.0 19.0----29.93- 55.4 45.1----
2024-06-21 06:36 amNNW 14.0 20.0----29.93- 55.0 45.1----
2024-06-21 06:30 am N 12.0 18.1----29.93- 54.7 45.1----
2024-06-21 06:24 am N 12.0 20.0----29.94- 54.5 45.1----
2024-06-21 06:18 am N 9.9 17.1----29.94- 54.5 45.1----
2024-06-21 06:12 am N 12.0 18.1----29.95- 54.5 45.1----
2024-06-21 06:06 amNNE 12.0 18.1----29.95- 54.3 45.1----
2024-06-21 06:00 amNNE 11.1 17.1----29.95+0.01 54.3 45.0----
2024-06-21 05:54 am N 9.9 18.1----29.95- 54.3 45.0----
2024-06-21 05:48 am N 8.9 17.1----29.95- 54.3 45.0----
2024-06-21 05:42 amNNE 11.1 15.9----29.95- 54.3 45.0----
2024-06-21 05:36 amNNE 11.1 15.0----29.95- 54.3 45.0----
2024-06-21 05:30 am N 9.9 17.1----29.95- 54.3 45.0----
2024-06-21 05:24 amNNE 9.9 15.9----29.94- 54.3 45.0----
2024-06-21 05:18 amNNE 12.0 15.9----29.94- 54.3 45.0----
2024-06-21 05:12 amNNE 9.9 18.1----29.95- 54.3 45.0----
2024-06-21 05:06 amNNE 11.1 20.0----29.95- 54.1 45.0----
2024-06-21 05:00 amNNE 12.0 19.0----29.95+0.00 54.1 45.0----
2024-06-21 04:54 am N 11.1 15.9----29.95- 54.0 45.0----
2024-06-21 04:48 am N 11.1 18.1----29.94- 54.0 45.0----
2024-06-21 04:42 am N 12.0 17.1----29.94- 54.0 45.0----
2024-06-21 04:36 am N 12.0 19.0----29.94- 54.0 45.0----
2024-06-21 04:30 am N 13.0 17.1----29.93- 54.0 45.0----
2024-06-21 04:24 am N 12.0 17.1----29.93- 54.0 45.0----
2024-06-21 04:18 am N 12.0 18.1----29.93- 54.0 45.0----
2024-06-21 04:12 am N 12.0 17.1----29.93- 54.0 45.0----
2024-06-21 04:06 am N 12.0 18.1----29.93- 54.0 45.0----
2024-06-21 04:00 am N 13.0 17.1----29.93-0.02 54.0 45.0----
2024-06-21 03:54 am N 13.0 18.1----29.93- 54.1 45.0----
2024-06-21 03:48 am N 11.1 17.1----29.93- 54.1 45.0----
2024-06-21 03:42 am N 12.0 17.1----29.93- 54.1 45.0----
2024-06-21 03:36 am N 12.0 15.9----29.93- 54.1 45.0----
2024-06-21 03:30 amNNW 12.0 15.9----29.93- 54.3 45.0----
2024-06-21 03:24 am N 11.1 15.0----29.93- 54.3 45.0----
2024-06-21 03:18 am N 12.0 15.9----29.93- 54.3 45.0----
2024-06-21 03:12 am N 12.0 15.0----29.93- 54.3 45.0----
2024-06-21 03:06 am N 12.0 18.1----29.93- 54.3 45.0----
2024-06-21 03:00 am N 12.0 17.1----29.94-0.02 54.3 45.0----
2024-06-21 02:54 am N 12.0 18.1----29.94- 54.3 45.0----
2024-06-21 02:48 am N 9.9 19.0----29.94- 54.1 45.0----
2024-06-21 02:42 am N 12.0 17.1----29.94- 54.3 45.0----
2024-06-21 02:36 am N 12.0 18.1----29.94- 54.1 45.0----
2024-06-21 02:30 am N 11.1 18.1----29.94- 54.1 45.0----
2024-06-21 02:24 am N 11.1 17.1----29.94- 54.0 45.0----
2024-06-21 02:18 am N 13.0 17.1----29.94- 53.8 45.0----
2024-06-21 02:12 am N 12.0 20.0----29.94- 53.8 45.0----
2024-06-21 02:06 am N 13.0 19.0----29.95- 53.6 45.0----
2024-06-21 02:00 am N 12.0 21.0----29.95+0.00 53.4 45.0----
2024-06-21 01:54 am N 9.9 17.1----29.96- 53.2 45.0----
2024-06-21 01:48 am N 13.0 21.0----29.96- 53.2 45.0----
2024-06-21 01:42 am N 11.1 20.0----29.96- 53.2 45.0----
2024-06-21 01:36 am N 13.0 19.0----29.96- 53.2 45.0----
2024-06-21 01:30 am N 11.1 22.9----29.96- 53.1 45.0----
2024-06-21 01:24 am N 13.0 20.0----29.95- 53.1 45.0----
2024-06-21 01:18 am N 13.0 19.0----29.95- 53.1 45.0----
2024-06-21 01:12 am N 11.1 15.9----29.95- 53.1 45.0----
2024-06-21 01:06 am N 11.1 17.1----29.95- 53.2 45.0----
2024-06-21 01:00 am N 12.0 17.1----29.95+0.00 53.2 45.0----
2024-06-21 12:54 am N 12.0 18.1----29.95- 53.2 45.0----
2024-06-21 12:48 am N 14.0 18.1----29.95- 53.2 45.0----
2024-06-21 12:42 am N 13.0 15.9----29.95- 53.2 45.0----
2024-06-21 12:36 am N 11.1 17.1----29.95- 53.2 45.0----
2024-06-21 12:30 am N 13.0 18.1----29.95- 53.4 45.0----
2024-06-21 12:24 amNNW 13.0 19.0----29.95- 53.4 45.0----
2024-06-21 12:18 am N 13.0 18.1----29.95- 53.4 45.0----
2024-06-21 12:12 am N 13.0 21.0----29.96- 53.4 45.0----
2024-06-21 12:06 am N 14.0 19.0----29.96- 53.4 45.0----
2024-06-21 12:00 am N 13.0 20.0----29.96+0.02 53.4 45.0----
2024-06-20 11:54 pm N 15.0 21.0----29.96- 53.6 45.0----
2024-06-20 11:48 pm N 15.9 22.9----29.96- 53.6 45.0----
2024-06-20 11:42 pm N 15.0 24.1----29.96- 53.6 45.0----
2024-06-20 11:36 pm N 15.0 22.0----29.95- 53.6 45.0----
2024-06-20 11:30 pm N 15.0 22.0----29.95- 53.6 45.0----
2024-06-20 11:24 pm N 15.9 22.9----29.96- 53.6 45.0----
2024-06-20 11:18 pm N 15.0 21.0----29.96- 53.6 45.0----
2024-06-20 11:12 pm N 15.0 22.0----29.96- 53.6 45.0----
2024-06-20 11:06 pm N 15.9 25.1----29.95- 53.6 45.0----
2024-06-20 11:00 pm N 15.0 21.0----29.96+0.03 53.8 45.0----
2024-06-20 10:54 pm N 14.0 24.1----29.96- 53.8 45.1----
2024-06-20 10:48 pm N 12.0 19.0----29.96- 53.8 45.1----
2024-06-20 10:42 pm N 14.0 20.0----29.96- 53.8 45.1----
2024-06-20 10:36 pm N 13.0 22.0----29.96- 53.8 45.1----
2024-06-20 10:30 pm N 13.0 21.0----29.96- 53.8 45.1----
2024-06-20 10:24 pm N 12.0 19.0----29.96- 53.8 45.3----
2024-06-20 10:18 pm N 12.0 20.0----29.96- 54.0 45.3----
2024-06-20 10:12 pm N 13.0 19.0----29.95- 54.0 45.3----
2024-06-20 10:06 pm N 12.0 19.0----29.95- 54.1 45.3----
2024-06-20 10:00 pm N 15.0 22.0----29.95+0.02 54.3 45.5----
2024-06-20 09:54 pm N 14.0 22.9----29.95- 54.5 45.5----
2024-06-20 09:48 pm N 11.1 15.9----29.95- 54.5 45.5----
2024-06-20 09:42 pmNNW 13.0 21.0----29.95- 54.7 45.5----
2024-06-20 09:36 pm N 12.0 17.1----29.94- 54.9 45.5----
2024-06-20 09:30 pm N 13.0 18.1----29.94- 55.0 45.3----
2024-06-20 09:24 pm N 14.0 18.1----29.93- 55.0 45.3----
2024-06-20 09:18 pm N 12.0 18.1----29.94- 55.0 45.3----
2024-06-20 09:12 pm N 12.0 18.1----29.93- 55.2 45.3----
2024-06-20 09:06 pm N 13.0 18.1----29.93- 55.2 45.3----
2024-06-20 09:00 pm N 13.0 17.1----29.93+0.01 55.2 45.5----
2024-06-20 08:54 pm N 11.1 17.1----29.93- 55.4 45.5----
2024-06-20 08:48 pm N 12.0 17.1----29.93- 55.6 45.5----
2024-06-20 08:42 pm N 15.0 22.9----29.93- 55.6 45.3----
2024-06-20 08:36 pm N 12.0 19.0----29.93- 55.8 45.5----
2024-06-20 08:30 pm N 13.0 21.0----29.93- 55.8 45.5----
2024-06-20 08:24 pm N 13.0 20.0----29.93- 55.8 45.5----
2024-06-20 08:18 pm N 13.0 18.1----29.93- 55.8 45.5----
2024-06-20 08:12 pm N 14.0 24.1----29.93- 55.9 45.5----
2024-06-20 08:06 pm N 12.0 22.9----29.93- 55.9 45.7----
2024-06-20 08:00 pm N 14.0 22.0----29.93+0.00 56.1 45.7----
2024-06-20 07:54 pm N 14.0 22.0----29.93- 56.5 45.7----
2024-06-20 07:48 pm N 14.0 22.0----29.93- 56.7 45.7----
2024-06-20 07:42 pm N 15.0 21.0----29.93- 56.7 45.9----
2024-06-20 07:36 pm N 13.0 19.0----29.93- 56.8 45.9----
2024-06-20 07:30 pm N 15.0 24.1----29.93- 56.8 45.9----
2024-06-20 07:24 pm N 15.0 20.0----29.93- 56.8 45.9----
2024-06-20 07:18 pm N 14.0 22.0----29.93- 56.8 45.9----
2024-06-20 07:12 pm N 15.0 22.9----29.93- 57.0 45.9----
2024-06-20 07:06 pm N 17.1 25.1----29.93- 57.2 46.0----
2024-06-20 07:00 pm N 14.0 25.1----29.93+0.00 57.2 46.0----
2024-06-20 06:54 pm N 15.0 25.1----29.93- 57.4 46.0----
2024-06-20 06:48 pm N 15.9 24.1----29.93- 57.6 46.0----
2024-06-20 06:42 pm N 18.1 26.0----29.93- 57.7 46.2----
2024-06-20 06:36 pm N 15.9 25.1----29.93- 57.9 46.0----
2024-06-20 06:30 pm N 15.0 22.0----29.92- 58.1 46.2----
2024-06-20 06:24 pm N 15.0 24.1----29.93- 58.1 46.4----
2024-06-20 06:18 pm N 14.0 26.0----29.92- 58.3 46.4----
2024-06-20 06:12 pm N 14.0 28.0----29.92- 58.6 46.4----
2024-06-20 06:06 pm N 14.0 27.0----29.93- 58.5 46.4----
2024-06-20 06:00 pm N 20.0 27.0----29.92-0.02 58.5 46.4----
2024-06-20 05:54 pm N 15.0 25.1----29.93- 59.2 46.6----
2024-06-20 05:48 pm N 15.9 25.1----29.93- 59.2 46.6----
2024-06-20 05:42 pm N 15.9 22.9----29.93- 59.2 46.6----
2024-06-20 05:36 pm N 15.9 22.0----29.93- 59.4 46.6----
2024-06-20 05:30 pm N 15.0 24.1----29.93- 59.4 46.6----
2024-06-20 05:24 pm N 17.1 25.1----29.93- 59.4 46.8----
2024-06-20 05:18 pm N 17.1 27.0----29.93- 59.4 46.8----
2024-06-20 05:12 pm N 18.1 26.0----29.93- 59.4 46.8----
2024-06-20 05:06 pm N 14.0 25.1----29.93- 59.4 46.6----
2024-06-20 05:00 pm N 21.0 28.0----29.93-0.01 59.0 46.6----
2024-06-20 04:54 pm N 17.1 28.9----29.93- 59.2 46.6----
2024-06-20 04:48 pm N 19.0 29.9----29.93- 59.2 46.6----
2024-06-20 04:42 pm N 18.1 29.9----29.93- 59.4 46.6----
2024-06-20 04:36 pm N 17.1 28.0----29.93- 59.7 46.4----
2024-06-20 04:30 pm N 17.1 27.0----29.93- 59.5 46.4----
2024-06-20 04:24 pm N 19.0 29.9----29.93- 59.4 46.4----
2024-06-20 04:18 pm N 18.1 28.0----29.93- 59.5 46.6----
2024-06-20 04:12 pm N 15.0 28.0----29.93- 59.7 46.6----
2024-06-20 04:06 pm N 22.0 28.0----29.93- 59.5 46.6----
2024-06-20 04:00 pm N 17.1 28.9----29.93-0.02 59.9 46.6----
2024-06-20 03:54 pm N 20.0 27.0----29.93- 59.7 46.6----